When you browse on this site, cookies collect data to enhance your experience and personalize the content and advertising you see.
Visit our Privacy Policy to learn more. By continuing to use the site, you agree to this use of cookies and data.
  • In Österreich
  • Länderverzeichnis
  • Für 7 Tage
  • Wassertemperatur
  • Wetterkarte
  • News
  • Widgets
  • user-avatar
    Anmelden

    Stündliche Wetter Phnom Penh

    Heute, 20 Januar, Montag

    Zeit Temperatur Niederschläge Wind Luftdruck Luftfeuchtigkeit
    00:00 +27°C° 0 mm 2 m/S 758 mmHg 62%
    01:00 +26°C° 0 mm 2 m/S 759 mmHg 66%
    02:00 +25°C° 0 mm 2 m/S 758 mmHg 70%
    03:00 +25°C° 0 mm 2 m/S 758 mmHg 74%
    04:00 +24°C° 0 mm 2 m/S 758 mmHg 79%
    05:00 +24°C° 0 mm 1 m/S 758 mmHg 79%
    06:00 +24°C° 0 mm 1 m/S 758 mmHg 79%
    07:00 +24°C° 0 mm 1 m/S 759 mmHg 79%
    08:00 +26°C° 0 mm 1 m/S 759 mmHg 71%
    09:00 +28°C° 0 mm 1 m/S 759 mmHg 63%
    10:00 +30°C° 0 mm 1 m/S 759 mmHg 55%
    11:00 +32°C° 0 mm 1 m/S 759 mmHg 50%
    12:00 +33°C° 0 mm 1 m/S 758 mmHg 45%
    13:00 +36°C° 0 mm 2 m/S 758 mmHg 40%
    14:00 +36°C° 0 mm 2 m/S 757 mmHg 39%
    15:00 +36°C° 0 mm 2 m/S 756 mmHg 38%
    16:00 +36°C° 0 mm 2 m/S 755 mmHg 37%
    17:00 +35°C° 0 mm 2 m/S 756 mmHg 40%
    18:00 +32°C° 0 mm 2 m/S 757 mmHg 43%
    19:00 +31°C° 0 mm 1 m/S 757 mmHg 47%
    20:00 +31°C° 0 mm 2 m/S 758 mmHg 48%
    21:00 +30°C° 0 mm 2 m/S 759 mmHg 49%
    22:00 +30°C° 0 mm 2 m/S 759 mmHg 50%
    23:00 +29°C° 0 mm 2 m/S 759 mmHg 56%

    Morgen, 21 Januar, Dienstag

    Zeit Temperatur Niederschläge Wind Luftdruck Luftfeuchtigkeit
    00:00 +28°C° 0 mm 2 m/S 760 mmHg 61%
    01:00 +27°C° 0 mm 2 m/S 760 mmHg 67%
    02:00 +27°C° 0 mm 2 m/S 759 mmHg 70%
    03:00 +26°C° 0 mm 2 m/S 759 mmHg 74%
    04:00 +25°C° 0 mm 2 m/S 759 mmHg 77%
    05:00 +25°C° 0 mm 2 m/S 759 mmHg 77%
    06:00 +25°C° 0 mm 2 m/S 759 mmHg 77%
    07:00 +25°C° 0 mm 1 m/S 760 mmHg 78%
    08:00 +27°C° 0 mm 2 m/S 760 mmHg 71%
    09:00 +29°C° 0 mm 2 m/S 760 mmHg 64%
    10:00 +30°C° 0 mm 3 m/S 761 mmHg 57%
    11:00 +33°C° 0 mm 3 m/S 760 mmHg 51%
    12:00 +34°C° 0 mm 3 m/S 759 mmHg 45%
    13:00 +36°C° 0 mm 3 m/S 758 mmHg 39%
    14:00 +36°C° 0 mm 3 m/S 757 mmHg 37%
    15:00 +37°C° 0 mm 2 m/S 757 mmHg 35%
    16:00 +37°C° 0 mm 2 m/S 756 mmHg 33%
    17:00 +35°C° 0 mm 2 m/S 757 mmHg 37%
    18:00 +33°C° 0 mm 1 m/S 757 mmHg 41%
    19:00 +31°C° 0 mm 1 m/S 758 mmHg 45%
    20:00 +31°C° 0 mm 1 m/S 758 mmHg 46%
    21:00 +30°C° 0 mm 2 m/S 759 mmHg 48%
    22:00 +30°C° 0 mm 2 m/S 759 mmHg 50%
    23:00 +29°C° 0 mm 2 m/S 759 mmHg 59%

    übermorgen, 22 Januar, Mittwoch

    Zeit Temperatur Niederschläge Wind Luftdruck Luftfeuchtigkeit
    00:00 +27°C° 0 mm 2 m/S 759 mmHg 67%
    01:00 +26°C° 0 mm 2 m/S 759 mmHg 76%
    02:00 +26°C° 0 mm 2 m/S 759 mmHg 78%
    03:00 +25°C° 0 mm 2 m/S 758 mmHg 81%
    04:00 +25°C° 0 mm 2 m/S 758 mmHg 83%
    05:00 +25°C° 0 mm 2 m/S 758 mmHg 83%
    06:00 +25°C° 0 mm 2 m/S 759 mmHg 83%
    07:00 +25°C° 0 mm 1 m/S 759 mmHg 83%
    08:00 +27°C° 0 mm 1 m/S 760 mmHg 75%
    09:00 +29°C° 0 mm 1 m/S 760 mmHg 66%
    10:00 +31°C° 0 mm 1 m/S 760 mmHg 57%
    11:00 +33°C° 0 mm 1 m/S 759 mmHg 52%
    12:00 +34°C° 0 mm 1 m/S 758 mmHg 46%
    13:00 +36°C° 0 mm 1 m/S 757 mmHg 40%
    14:00 +36°C° 0 mm 1 m/S 757 mmHg 39%
    15:00 +37°C° 0 mm 2 m/S 756 mmHg 37%
    16:00 +38°C° 0 mm 2 m/S 755 mmHg 35%
    17:00 +36°C° 0 mm 2 m/S 756 mmHg 39%
    18:00 +34°C° 0 mm 1 m/S 756 mmHg 42%
    19:00 +32°C° 0 mm 1 m/S 756 mmHg 46%
    20:00 +31°C° 0 mm 1 m/S 757 mmHg 49%
    21:00 +31°C° 0 mm 2 m/S 757 mmHg 52%
    22:00 +30°C° 0 mm 3 m/S 758 mmHg 55%
    23:00 +29°C° 0 mm 3 m/S 758 mmHg 63%

    23 Januar, Donnerstag

    Zeit Temperatur Niederschläge Wind Luftdruck Luftfeuchtigkeit
    00:00 +28°C° 0 mm 4 m/S 758 mmHg 71%
    01:00 +26°C° 0 mm 4 m/S 757 mmHg 79%
    02:00 +26°C° 0 mm 4 m/S 757 mmHg 82%
    03:00 +26°C° 0 mm 3 m/S 757 mmHg 85%
    04:00 +25°C° 0 mm 3 m/S 757 mmHg 88%
    05:00 +25°C° 0 mm 3 m/S 757 mmHg 87%
    06:00 +25°C° 0 mm 3 m/S 758 mmHg 87%
    07:00 +25°C° 0 mm 3 m/S 758 mmHg 87%
    08:00 +27°C° 0 mm 3 m/S 758 mmHg 78%
    09:00 +29°C° 0 mm 4 m/S 759 mmHg 69%
    10:00 +32°C° 0 mm 4 m/S 759 mmHg 60%
    11:00 +33°C° 0 mm 3 m/S 758 mmHg 54%
    12:00 +35°C° 0 mm 2 m/S 757 mmHg 49%
    13:00 +35°C° 0 mm 1 m/S 756 mmHg 44%
    14:00 +36°C° 0 mm 1 m/S 756 mmHg 40%
    15:00 +36°C° 0 mm 1 m/S 755 mmHg 37%
    16:00 +37°C° 0 mm 1 m/S 754 mmHg 34%
    17:00 +35°C° 0 mm 1 m/S 754 mmHg 37%
    18:00 +33°C° 0 mm 1 m/S 755 mmHg 41%
    19:00 +31°C° 0 mm 1 m/S 755 mmHg 44%
    20:00 +31°C° 0 mm 2 m/S 756 mmHg 48%
    21:00 +30°C° 0 mm 3 m/S 756 mmHg 51%
    22:00 +29°C° 0 mm 5 m/S 757 mmHg 55%
    23:00 +28°C° 0 mm 4 m/S 757 mmHg 59%

    24 Januar, Freitag

    Zeit Temperatur Niederschläge Wind Luftdruck Luftfeuchtigkeit
    00:00 +27°C° 0 mm 4 m/S 757 mmHg 63%
    01:00 +26°C° 0 mm 3 m/S 757 mmHg 67%
    02:00 +25°C° 0 mm 3 m/S 757 mmHg 71%
    03:00 +25°C° 0 mm 3 m/S 757 mmHg 75%
    04:00 +24°C° 0 mm 3 m/S 756 mmHg 79%
    05:00 +24°C° 0 mm 3 m/S 757 mmHg 80%
    06:00 +24°C° 0 mm 3 m/S 757 mmHg 81%
    07:00 +24°C° 0 mm 3 m/S 758 mmHg 82%
    08:00 +27°C° 0 mm 3 m/S 758 mmHg 75%
    09:00 +29°C° 0 mm 4 m/S 758 mmHg 67%
    10:00 +32°C° 0 mm 4 m/S 759 mmHg 60%
    11:00 +33°C° 0 mm 4 m/S 758 mmHg 54%
    12:00 +35°C° 0 mm 3 m/S 757 mmHg 48%
    13:00 +36°C° 0 mm 3 m/S 756 mmHg 43%
    14:00 +36°C° 0 mm 3 m/S 755 mmHg 41%
    15:00 +36°C° 0 mm 3 m/S 755 mmHg 39%
    16:00 +37°C° 0 mm 3 m/S 754 mmHg 38%
    17:00 +35°C° 0 mm 3 m/S 754 mmHg 43%
    18:00 +33°C° 0 mm 3 m/S 754 mmHg 48%
    19:00 +30°C° 0 mm 3 m/S 755 mmHg 53%
    20:00 +30°C° 0 mm 3 m/S 755 mmHg 56%
    21:00 +29°C° 0 mm 3 m/S 756 mmHg 59%
    22:00 +28°C° 0 mm 3 m/S 757 mmHg 62%
    23:00 +28°C° 0 mm 4 m/S 757 mmHg 67%

    25 Januar, Samstag

    Zeit Temperatur Niederschläge Wind Luftdruck Luftfeuchtigkeit
    00:00 +27°C° 0 mm 4 m/S 756 mmHg 71%
    01:00 +27°C° 0 mm 4 m/S 756 mmHg 75%
    02:00 +26°C° 0 mm 4 m/S 756 mmHg 78%
    03:00 +26°C° 0 mm 4 m/S 756 mmHg 80%
    04:00 +26°C° 0 mm 4 m/S 756 mmHg 82%
    05:00 +26°C° 0 mm 4 m/S 756 mmHg 83%
    06:00 +26°C° 0 mm 4 m/S 757 mmHg 84%
    07:00 +26°C° 0 mm 3 m/S 757 mmHg 84%
    08:00 +27°C° 0 mm 4 m/S 758 mmHg 76%
    09:00 +29°C° 0 mm 4 m/S 758 mmHg 67%
    10:00 +32°C° 0 mm 4 m/S 758 mmHg 59%
    11:00 +33°C° 0 mm 4 m/S 757 mmHg 55%
    12:00 +34°C° 0 mm 4 m/S 756 mmHg 50%
    13:00 +35°C° 0 mm 3 m/S 755 mmHg 46%
    14:00 +36°C° 0 mm 3 m/S 755 mmHg 44%
    15:00 +36°C° 0 mm 3 m/S 754 mmHg 42%
    16:00 +36°C° 0 mm 3 m/S 754 mmHg 40%
    17:00 +35°C° 0 mm 3 m/S 754 mmHg 44%
    18:00 +33°C° 0 mm 3 m/S 755 mmHg 49%
    19:00 +30°C° 0 mm 3 m/S 755 mmHg 53%
    20:00 +30°C° 0 mm 3 m/S 756 mmHg 56%
    21:00 +29°C° 0 mm 3 m/S 756 mmHg 60%
    22:00 +28°C° 0 mm 3 m/S 757 mmHg 63%
    23:00 +28°C° 0 mm 3 m/S 756 mmHg 66%
    Mehr zeigen